Temperature
18 18 18 18 18 18 18 18 18 18 18 18 18 18 18 18 18 18 18 18 18 18 18 18 18 18 17 17 17 17 17 17 17 17 17 17 17 17 16 16 16 16 16
18 18 18 18 18 18 18 18 18 18 18 18 18 18 18 18 18 18 18 18 18 18 18 18 18 18 17 17 17 17 17 17 17 17 17 17 17 16 16 16 16 16 16
18 18 18 18 18 18 18 18 18 18 18 18 18 18 18 18 18 18 18 18 18 18 18 18 18 18 17 17 17 17 17 17 17 17 17 17 17 16 16 16 16 16 16
18 18 18 18 18 18 18 18 18 18 18 18 18 18 18 18 18 18 18 18 18 18 18 18 18 18 17 17 17 17 17 17 17 17 17 17 17 17 16 16 16 16 16
18 18 18 18 18 18 18 18 18 18 18 18 18 18 18 18 18 18 18 18 18 18 18 18 18 18 18 17 17 17 17 17 17 17 17 17 17 17 17 16 16 16 16
18 18 18 18 18 18 18 18 18 18 18 18 18 18 18 18 18 18 18 18 18 18 18 18 18 18 17 17 17 17 17 17 17 17 17 16 17 16 16 16 16 16 16
18 18 18 18 18 18 18 18 18 18 18 18 18 18 18 18 18 18 18 18 18 18 18 18 18 18 17 17 17 17 17 17 17 17 17 16 16 16 16 16 16 16 16
18 18 18 18 18 18 18 18 18 18 18 18 18 18 18 18 18 18 18 18 18 18 18 18 18 17 17 17 17 17 17 17 17 17 17 16 16 16 16 16 16 16 16
18 18 18 18 18 18 18 18 18 18 18 18 18 18 18 18 18 18 18 18 18 18 18 18 18 17 17 17 17 17 17 17 17 16 16 16 16 16 16 16 16 16 16
18 18 18 18 18 18 18 18 18 18 18 18 18 18 18 18 18 17 18 18 18 18 17 17 17 17 17 17 17 17 17 17 16 16 16 16 16 16 16 16 15 15 16
18 18 18 18 18 18 18 18 18 18 18 18 18 18 18 18 17 17 17 18 18 17 17 17 17 17 17 17 17 17 17 16 16 16 16 16 16 16 16 16 16 15 15
18 18 18 18 18 18 18 17 17 17 17 18 17 18 18 18 17 17 17 17 17 17 17 17 17 17 17 17 17 17 16 16 16 16 16 16 16 16 16 16 15 15 15
17 18 17 17 17 17 17 17 17 17 17 17 17 17 17 17 17 17 17 17 17 17 17 17 17 17 17 17 17 16 16 16 16 16 16 16 16 16 16 15 15 15 15
17 17 17 17 17 17 17 17 17 17 17 17 17 17 17 17 17 17 17 17 16 16 16 17 17 17 16 16 16 16 16 16 16 16 16 16 16 15 15 15 15 15 15
17 17 17 17 17 17 17 17 17 17 17 17 17 17 17 17 17 17 17 17 16 16 16 16 16 16 16 16 16 16 16 16 16 16 16 15 15 15 15 15 15 15 14
17 17 17 17 17 17 17 17 17 17 17 17 17 17 17 17 17 17 17 16 16 16 15 16 16 16 16 16 16 16 16 16 16 16 15 15 15 15 15 15 15 14 14
17 17 17 17 17 17 17 17 16 16 16 17 17 17 17 17 17 17 16 16 16 16 16 15 16 16 16 16 16 16 15 15 15 15 15 15 15 15 15 15 14 14 14
16 16 16 16 16 16 16 16 16 16 16 16 16 16 16 16 16 16 16 16 16 16 16 15 15 15 15 15 15 15 15 15 15 15 15 15 15 15 15 14 14 14 14
16 16 16 16 16 16 16 16 16 16 16 16 16 16 16 16 16 16 16 16 15 15 15 15 15 15 15 15 15 15 15 15 15 15 15 15 14 14 14 14 14 14 14
16 16 16 16 16 16 16 16 16 16 16 16 16 16 16 16 16 15 15 15 15 15 15 15 15 15 15 15 15 15 15 15 15 15 14 14 14 14 14 14 14 14 14
16 16 16 16 16 16 15 15 15 15 15 15 15 15 15 15 15 15 15 15 15 15 15 15 14 14 14 14 14 14 14 14 14 14 14 14 14 14 14 14 14 14 14
16 16 16 15 15 15 15 15 15 15 15 15 15 15 15 15 15 15 15 14 14 14 14 14 14 14 14 14 14 14 14 14 14 14 14 14 14 14 14 14 14 14 14
15 15 15 15 15 15 15 15 15 15 15 15 15 15 15 15 14 14 14 14 14 14 14 14 14 14 14 14 14 14 14 14 14 14 14 13 13 14 13 13 13 13 13
15 15 15 15 15 15 14 14 14 14 14 14 14 14 14 14 14 14 14 14 14 14 14 14 14 14 14 14 14 14 14 13 13 13 13 13 13 13 13 13 13 13 13
15 15 15 15 14 14 14 14 14 14 14 14 14 14 14 14 14 14 14 14 14 14 14 13 13 13 13 13 13 13 13 13 13 13 13 12 13 13 13 13 13 13 13
15 15 14 14 14 14 14 14 14 14 14 14 14 14 14 13 13 13 13 13 13 13 13 13 13 13 13 13 13 13 13 13 12 12 12 12 12 12 12 12 12 12 12
Wind_Speed
1 1 1 2 2 3 3 2 3 3 3 3 4 5 4 5 7 8 8 12 13 13 12 12 13 12 12 11 11 11 11 11 11 11 11 11 11 12 12 12 11 11 11
2 1 1 1 2 3 3 3 3 2 2 2 2 3 4 5 6 7 8 10 12 13 13 13 13 13 13 13 12 11 11 11 11 11 11 11 11 11 12 12 12 12 12
3 2 1 1 2 2 2 2 1 1 1 1 1 2 3 3 5 6 8 9 10 11 12 12 12 12 13 13 12 12 11 11 11 12 12 11 11 11 12 12 13 12 12
3 2 1 1 1 1 1 1 1 0 0 0 1 2 2 3 4 5 6 7 8 8 10 11 11 11 11 11 11 10 10 11 11 11 11 12 12 12 11 12 12 12 12
2 2 1 1 1 0 0 1 1 1 1 1 2 2 2 2 3 4 4 6 7 8 8 9 10 10 10 10 10 10 9 10 10 10 11 11 12 12 12 12 12 13 12
2 1 1 1 1 0 0 0 1 1 1 1 1 1 2 2 2 3 4 4 6 7 8 7 8 8 10 10 10 10 9 9 10 11 11 11 11 11 11 12 12 13 13
2 2 1 1 1 1 1 1 1 0 1 0 1 2 3 1 1 2 2 3 4 5 7 8 8 7 7 10 11 10 10 10 11 11 11 11 11 11 11 11 12 12 13
2 2 2 1 1 1 1 1 1 1 1 1 2 1 2 3 2 1 1 2 3 3 4 6 7 7 7 6 7 9 9 9 10 11 12 12 11 11 11 12 12 12 13
2 2 2 1 0 1 2 2 2 2 2 1 2 3 2 2 2 2 2 1 1 1 2 3 6 7 8 7 7 8 8 9 9 10 11 12 12 12 12 12 12 12 13
3 3 2 1 1 1 1 2 2 2 2 2 2 2 3 3 2 1 3 2 2 2 2 3 4 6 7 7 8 8 8 8 8 8 9 10 11 12 11 12 12 12 13
2 2 2 2 2 1 1 1 2 2 2 3 2 1 1 1 2 2 2 3 2 2 2 2 2 3 6 7 8 9 9 9 9 8 8 8 10 11 11 11 12 13 12
2 2 2 2 2 2 2 2 2 2 2 2 2 2 2 2 2 2 3 3 2 3 2 1 1 2 4 6 8 9 10 10 10 9 8 8 8 9 10 11 11 11 11
2 3 3 2 2 3 2 2 2 2 2 2 2 2 2 3 3 3 3 2 2 2 1 1 2 2 3 4 6 8 9 10 10 9 8 8 8 8 9 9 8 7 8
3 2 2 2 2 2 2 2 2 2 1 2 2 2 1 2 2 3 3 3 1 2 2 3 2 1 2 3 6 7 6 8 9 9 9 8 8 8 8 8 7 6 6
2 1 1 1 2 2 2 1 1 2 1 1 2 2 2 2 2 2 2 4 4 2 3 3 2 2 2 2 4 5 5 8 9 9 9 9 8 8 8 7 7 6 6
2 1 2 2 1 2 2 1 2 2 1 2 2 2 2 2 2 1 2 2 3 4 3 3 3 2 1 1 2 4 5 6 8 8 8 8 9 9 8 8 7 7 7
2 2 2 2 2 2 2 1 1 1 2 2 2 2 2 2 1 1 1 1 2 3 4 3 2 1 0 1 1 1 2 3 4 7 8 8 8 8 9 9 9 8 8
1 2 2 2 2 2 2 1 2 2 2 2 2 2 3 2 2 1 1 2 2 2 4 3 2 1 1 1 1 1 1 2 2 4 6 7 7 8 9 9 9 9 9
2 1 1 2 2 2 2 2 2 2 2 3 3 3 3 2 2 2 2 2 2 2 2 3 3 2 1 1 0 0 0 0 1 1 4 5 6 7 8 8 8 9 9
2 2 2 2 2 2 2 2 3 3 3 3 3 3 3 3 4 3 3 3 2 1 2 2 2 2 2 1 1 1 1 1 1 1 1 2 4 6 7 7 8 9 9
2 2 2 2 2 2 3 3 3 3 3 3 3 3 3 3 4 3 3 3 3 2 2 2 2 2 2 1 2 2 2 1 1 1 1 1 1 2 4 6 8 8 9
2 2 2 2 2 2 3 2 2 3 2 2 3 3 3 2 3 3 4 4 5 5 4 4 3 4 4 3 3 3 2 1 2 2 1 2 1 2 3 4 7 9 9
2 2 2 2 2 3 3 2 2 1 2 2 3 3 3 3 2 2 3 3 4 5 6 6 6 6 6 5 4 3 3 3 3 3 1 2 2 3 3 5 7 9 10
2 2 2 2 2 3 2 2 2 1 1 2 2 2 2 2 2 1 1 1 2 2 4 4 5 6 5 5 6 6 5 2 1 1 2 2 2 3 3 3 5 7 8
2 2 2 2 3 3 2 2 1 1 1 2 2 2 2 2 3 1 1 1 2 2 2 2 3 3 4 5 5 3 3 2 1 2 1 2 2 2 2 3 4 5 7
2 2 2 3 3 3 3 2 2 1 1 1 2 2 2 2 2 1 1 2 2 2 1 2 2 2 0 2 4 5 5 4 2 2 2 2 2 1 2 2 2 2 4
Wind_Direction
172 189 205 217 222 222 223 223 236 238 236 229 221 206 204 193 182 188 195 200 204 206 206 208 209 209 209 210 208 207 207 205 204 203 201 200 199 198 199 199 200 201 202
170 168 198 204 218 223 229 224 227 227 229 216 205 202 199 190 184 190 196 202 210 213 216 216 217 215 213 213 213 211 212 214 212 208 205 205 205 205 204 204 201 201 202
188 170 171 204 235 230 220 217 222 208 215 216 213 216 205 196 192 198 199 205 213 219 222 222 222 219 216 214 214 212 214 218 215 211 207 207 207 206 206 207 206 204 205
188 173 177 229 248 203 182 178 167 137 260 264 240 236 216 207 207 204 201 204 208 215 222 228 227 225 223 218 215 214 217 220 218 214 209 210 211 209 207 208 209 207 209
199 180 208 252 270 38 249 219 160 167 175 256 249 230 221 218 217 211 203 208 210 214 218 223 227 225 223 219 216 216 218 221 218 216 214 212 213 212 212 212 211 211 213
202 190 217 250 241 176 281 220 186 182 196 233 280 305 286 239 209 209 212 213 216 218 216 219 219 223 225 222 220 220 219 218 219 218 217 212 211 212 213 212 212 212 214
201 191 233 255 232 199 223 214 169 197 287 119 54 346 335 312 256 231 214 208 216 219 215 218 213 210 218 225 225 226 226 222 219 216 216 216 215 212 212 213 215 214 216
217 215 212 231 227 207 264 250 156 158 268 162 139 70 343 342 332 286 245 224 234 222 220 217 206 202 209 209 214 218 221 224 223 221 219 218 218 216 216 217 219 218 217
223 233 226 201 176 188 222 231 197 190 227 258 170 155 170 237 301 322 299 271 257 229 236 216 203 201 202 200 208 215 218 223 226 227 225 223 221 218 219 219 220 220 220
224 226 227 196 199 197 218 237 214 203 196 245 260 208 190 176 175 303 321 308 292 249 240 233 211 203 202 201 209 212 217 218 222 225 224 222 220 219 220 223 223 224 222
240 222 220 221 213 217 220 238 245 225 209 212 221 229 220 194 176 181 270 302 317 292 260 240 209 199 204 204 210 215 215 214 216 216 217 219 221 219 220 226 226 226 223
264 249 222 224 227 219 224 234 238 229 224 218 218 208 194 192 203 187 222 251 271 281 283 267 228 216 217 211 215 217 213 211 211 211 216 217 216 215 222 229 231 231 229
258 259 244 228 234 239 234 221 223 238 234 227 226 228 216 216 197 184 188 229 258 280 294 288 253 229 240 225 223 221 216 213 210 209 214 217 218 216 220 225 226 227 228
235 240 224 225 235 243 246 227 228 239 232 229 241 233 223 227 195 186 184 182 232 298 298 279 299 263 252 233 232 221 219 214 208 206 209 212 216 219 217 215 209 209 215
237 223 202 217 241 247 244 224 239 250 243 228 230 236 239 243 226 213 192 179 180 225 265 266 277 283 271 237 227 218 220 215 205 206 210 211 211 211 209 205 200 201 209
235 214 220 227 247 254 248 232 247 251 242 247 231 231 247 249 239 224 199 199 189 193 235 258 252 261 263 282 243 216 217 211 206 206 209 210 211 212 212 209 206 205 208
221 218 221 224 240 253 244 219 243 237 242 256 256 233 247 241 236 233 196 185 191 180 212 258 259 266 236 272 326 252 215 210 218 215 214 213 214 214 214 212 208 206 208
213 216 218 233 242 252 250 220 245 258 244 252 256 255 261 249 242 235 190 194 209 199 188 222 256 273 247 221 222 215 225 217 219 225 216 214 214 212 214 213 213 212 210
217 222 209 225 245 257 250 244 240 247 249 254 249 246 258 241 241 229 199 199 214 216 184 193 235 243 248 226 212 269 315 334 223 232 222 226 218 212 215 217 220 219 217
196 210 216 225 225 232 239 250 256 256 257 260 255 248 250 233 224 217 217 205 188 182 182 193 225 242 235 232 163 199 279 297 261 305 278 247 225 219 219 218 223 222 218
213 211 218 243 242 234 246 250 253 261 257 267 273 261 256 249 227 219 221 198 178 184 195 199 220 237 240 205 211 215 221 250 271 270 275 281 243 238 232 232 230 229 223
225 226 229 235 253 265 273 254 244 254 257 263 273 277 277 274 252 236 223 210 188 193 204 209 224 223 231 220 213 203 200 197 265 259 207 266 223 244 253 236 235 230 226
227 255 253 241 258 272 288 281 271 234 240 252 259 266 282 284 268 249 239 237 233 227 216 208 220 231 223 212 196 202 206 203 233 233 179 259 259 251 255 252 241 232 225
230 242 253 242 251 272 275 282 281 246 245 254 256 253 259 279 276 230 203 238 254 248 233 222 218 227 222 207 192 194 198 204 267 244 164 231 260 258 268 264 247 236 229
252 250 249 240 242 265 262 256 236 215 249 278 279 275 262 256 269 232 170 238 293 292 278 260 230 225 204 188 177 152 150 152 251 265 210 191 249 268 270 266 263 239 232
255 268 268 255 246 259 266 239 193 188 226 281 308 309 299 279 274 238 183 190 236 280 317 353 12 21 137 174 167 175 180 179 200 255 238 193 236 243 283 272 266 264 248
Height
1536 1537 1537 1537 1537 1537 1538 1538 1538 1538 1538 1539 1539 1539 1539 1540 1539 1539 1540 1540 1540 1540 1540 1540 1540 1541 1541 1541 1541 1541 1542 1542 1543 1544 1544 1545 1546 1547 1548 1549 1550 1551 1552
1536 1537 1537 1537 1537 1538 1538 1538 1538 1538 1538 1538 1538 1539 1539 1539 1539 1539 1539 1539 1539 1539 1539 1539 1539 1539 1539 1539 1540 1540 1540 1541 1541 1542 1543 1543 1544 1545 1546 1547 1548 1549 1550
1536 1537 1537 1537 1537 1538 1538 1538 1538 1538 1538 1538 1538 1538 1538 1538 1538 1538 1538 1537 1537 1538 1537 1537 1538 1538 1538 1538 1538 1538 1538 1539 1539 1540 1541 1541 1542 1543 1544 1545 1546 1547 1548
1536 1536 1536 1537 1537 1537 1537 1537 1537 1537 1537 1537 1537 1537 1537 1537 1537 1537 1536 1536 1536 1536 1536 1536 1536 1536 1536 1536 1536 1536 1536 1537 1537 1538 1538 1539 1540 1540 1541 1542 1543 1544 1546
1535 1535 1536 1536 1536 1536 1536 1536 1536 1536 1536 1536 1536 1536 1536 1536 1536 1536 1535 1535 1535 1535 1535 1535 1534 1534 1534 1534 1534 1534 1534 1534 1535 1535 1536 1536 1537 1538 1538 1539 1541 1542 1543
1535 1535 1535 1535 1535 1535 1535 1535 1535 1535 1535 1535 1535 1535 1535 1535 1534 1534 1534 1534 1534 1533 1533 1533 1532 1532 1532 1532 1532 1532 1532 1532 1532 1533 1533 1533 1534 1535 1535 1537 1538 1539 1540
1533 1533 1533 1533 1533 1533 1534 1534 1534 1534 1534 1534 1534 1534 1533 1533 1533 1533 1533 1532 1532 1532 1531 1531 1530 1530 1530 1530 1530 1530 1530 1530 1530 1530 1530 1530 1531 1532 1532 1534 1535 1536 1537
1532 1532 1532 1532 1532 1532 1532 1532 1532 1532 1532 1533 1533 1532 1532 1532 1531 1531 1531 1531 1531 1530 1529 1529 1528 1528 1528 1528 1528 1528 1527 1527 1527 1527 1527 1527 1528 1529 1530 1531 1532 1533 1534
1530 1530 1530 1530 1530 1530 1530 1530 1531 1531 1530 1531 1532 1532 1531 1530 1530 1530 1529 1529 1529 1528 1527 1527 1526 1526 1526 1526 1526 1526 1525 1525 1524 1524 1524 1524 1525 1525 1526 1528 1529 1530 1531
1529 1529 1528 1528 1528 1528 1528 1528 1529 1529 1529 1528 1529 1530 1530 1529 1529 1528 1528 1528 1527 1527 1526 1525 1524 1524 1524 1524 1524 1523 1523 1523 1522 1522 1521 1521 1522 1523 1523 1524 1525 1527 1528
1527 1527 1527 1526 1526 1526 1526 1526 1526 1527 1527 1527 1527 1527 1527 1527 1527 1526 1525 1525 1525 1525 1524 1524 1523 1522 1522 1522 1522 1521 1521 1520 1520 1520 1519 1519 1520 1520 1521 1521 1523 1524 1525
1525 1524 1524 1524 1524 1524 1524 1524 1524 1524 1524 1524 1524 1525 1525 1525 1524 1524 1524 1523 1523 1523 1523 1522 1521 1521 1520 1520 1520 1519 1519 1518 1518 1518 1517 1517 1517 1518 1518 1519 1520 1521 1522
1522 1522 1522 1522 1522 1522 1522 1522 1521 1521 1521 1521 1521 1522 1522 1522 1522 1522 1522 1521 1521 1521 1520 1520 1520 1519 1519 1518 1518 1517 1517 1516 1516 1515 1515 1516 1516 1516 1516 1517 1518 1518 1519
1520 1520 1520 1519 1519 1519 1519 1519 1519 1519 1518 1518 1519 1519 1518 1519 1519 1519 1519 1519 1518 1518 1518 1517 1518 1517 1517 1516 1516 1515 1515 1514 1514 1513 1513 1513 1514 1514 1514 1515 1515 1516 1517
1518 1517 1517 1517 1517 1516 1516 1516 1516 1515 1516 1515 1515 1515 1515 1516 1516 1516 1516 1516 1517 1515 1514 1514 1515 1515 1515 1514 1514 1514 1513 1513 1512 1512 1512 1512 1512 1512 1512 1513 1514 1514 1515
1515 1515 1514 1514 1514 1514 1513 1513 1513 1513 1513 1513 1513 1512 1512 1512 1512 1512 1513 1513 1513 1513 1512 1511 1512 1512 1512 1512 1512 1511 1511 1511 1510 1510 1510 1510 1510 1510 1511 1511 1512 1512 1513
1512 1512 1511 1511 1511 1511 1510 1510 1510 1510 1510 1509 1509 1509 1509 1509 1509 1509 1509 1509 1509 1510 1509 1509 1510 1510 1510 1510 1510 1509 1509 1509 1509 1509 1508 1508 1508 1508 1509 1509 1510 1510 1511
1509 1509 1509 1508 1508 1507 1507 1506 1506 1506 1506 1506 1506 1506 1505 1505 1505 1505 1505 1505 1506 1506 1506 1505 1506 1507 1507 1508 1508 1507 1507 1507 1507 1507 1506 1506 1506 1507 1507 1507 1508 1508 1508
1506 1506 1506 1505 1505 1504 1504 1503 1503 1503 1502 1502 1502 1502 1501 1501 1501 1501 1501 1502 1502 1502 1503 1503 1503 1504 1504 1505 1505 1505 1505 1505 1504 1504 1504 1504 1505 1505 1505 1505 1505 1506 1506
1504 1503 1503 1502 1501 1500 1500 1500 1500 1499 1498 1498 1498 1498 1498 1498 1497 1497 1498 1498 1498 1499 1499 1500 1500 1501 1501 1502 1502 1502 1502 1502 1502 1502 1502 1502 1502 1503 1503 1503 1503 1503 1504
1501 1500 1500 1499 1498 1498 1497 1496 1496 1495 1495 1495 1495 1495 1494 1494 1494 1494 1494 1494 1494 1495 1496 1496 1497 1497 1497 1498 1498 1499 1499 1499 1499 1500 1500 1499 1500 1499 1500 1500 1500 1500 1500
1498 1497 1496 1496 1495 1494 1493 1493 1493 1492 1492 1492 1491 1491 1491 1491 1490 1490 1491 1491 1491 1492 1492 1493 1493 1493 1493 1495 1495 1496 1496 1496 1495 1497 1497 1497 1497 1496 1496 1496 1497 1497 1497
1495 1494 1493 1493 1492 1491 1491 1490 1490 1490 1489 1488 1488 1488 1488 1487 1487 1487 1487 1488 1488 1489 1489 1490 1490 1489 1490 1491 1492 1493 1493 1493 1493 1494 1494 1493 1494 1493 1494 1494 1494 1494 1494
1492 1491 1490 1490 1489 1489 1488 1487 1487 1486 1486 1486 1485 1485 1485 1484 1484 1484 1484 1484 1485 1486 1487 1487 1487 1487 1488 1488 1489 1490 1490 1490 1491 1491 1491 1490 1490 1491 1491 1491 1491 1491 1491
1489 1488 1488 1487 1486 1486 1485 1485 1484 1484 1483 1483 1483 1483 1482 1482 1482 1482 1482 1482 1482 1483 1484 1485 1485 1485 1485 1486 1486 1487 1487 1487 1487 1488 1488 1488 1488 1488 1488 1488 1488 1488 1488
1486 1485 1485 1484 1484 1483 1483 1482 1482 1481 1481 1481 1481 1481 1481 1480 1480 1480 1480 1480 1479 1480 1481 1481 1481 1482 1482 1482 1483 1484 1484 1484 1484 1484 1485 1486 1485 1485 1485 1485 1485 1485 1484